Location: Csohesd
(46.2500°N, 22.6167°E)
Time: 12:20:16
(UTC+00:00)

Cosmos 1980 Rocket - Pass Details

Date: 21 October 2021
Orbit: 828 x 851 km, 71.0° (Epoch: 06 December)

Event Time Altitude Azimuth Distance (km) Brightness Sun altitude
Rises 17:42:46 0° 247° (WSW) 3,390 6.3 -23.2°
Reaches altitude 10° 17:45:43 10° 262° (W) 2,463 5.6 -23.7°
Maximum altitude 17:50:10 23° 314° (NW) 1,722 4.4 -24.4°
Drops below altitude 10° 17:54:39 10° 6° (N) 2,484 4.7 -25.2°
Sets 17:57:39 0° 21° (NNE) 3,425 5.3 -25.7°
